User: anonymous   Login
Location: Unspecified
(0.0000°N, 0.0000°E)
Time: 21:16:36
(UTC+02:00)
Language:

Cosmos 1933 - Orbit

View from above orbital plane
View from above orbital plane
View from above satellite
View from above satellite

Ground track
Ground track

The orbit data is extracted from the following two-line orbital elements,

1 18958U 88020A   15182.25161783  .00000870  00000-0  63812-4 0  9998
2 18958 082.5305 075.2075 0011390 192.3698 167.7250 15.02236884483859
Epoch (UTC): 01 July 2015 06:02:19
Eccentricity: 0.0011390
inclination: 82.5305°
perigee height: 552 km
apogee height: 568 km
right ascension of ascending node: 75.2075°
argument of perigee: 192.3698°
revolutions per day: 15.02236884
mean anomaly at epoch: 167.7250°
orbit number at epoch: 48385

The dashed part of the orbit path shows where the satellite is in the earth's shadow,  

DLR